HJS-7D

Last updated on Fri Oct 17 2025 00:02:05 GMT+0000 (Coordinated Universal Time)

1 65620U 25209D 25289.60573796 .00000117 00000+0 11897-3 0 9993 2 65620 49.9986 210.2899 0001021 307.6123 52.4697 14.24267745 4349
UTC large
Height (km)
Speed (km/s)
/
Latitude / Longitude
Inclination (degrees)
Orbital Period (minutes)
Azimuth
Elevation
Range (km)
Doppler Factor

Next 0 passes for location: London (51.5072 / 0.1276)

Sorry there are no passes over London.
HJS-7D